This is the latest recevied weather packets stored in our database for station/object SQ3RAX-13. If no packets are shown the sender has not sent any weather packets the latest 10 day(s).
| Time | Temp. | Humidity | Pressure | Rain* | Wind** | Luminosity | Snow |
|---|---|---|---|---|---|---|---|
| 1778007368 | 16.67° C | 81% | 1007 hPa | 0 mm | - | - | - |
| 1778006768 | 16.67° C | 81% | 1007 hPa | 0 mm | - | - | - |
| 1778006168 | 16.67° C | 81% | 1007 hPa | 0 mm | - | - | - |
| 1778005568 | 17.22° C | 75% | 1007 hPa | 0 mm | - | - | - |
| 1778004968 | 17.22° C | 74% | 1007 hPa | 0 mm | - | - | - |
| 1778004368 | 17.22° C | 74% | 1007 hPa | 0 mm | - | - | - |
| 1778003768 | 17.78° C | 79% | 1007 hPa | 0 mm | - | - | - |
| 1778003168 | 17.78° C | 79% | 1007 hPa | 0 mm | - | - | - |
| 1778002568 | 17.78° C | 79% | 1007 hPa | 0 mm | - | - | - |
| 1778001968 | 18.33° C | 72% | 1007 hPa | 0 mm | - | - | - |
| 1778001368 | 18.89° C | 72% | 1007 hPa | 0 mm | - | - | - |
| 1778000768 | 19.44° C | 74% | 1006 hPa | 0 mm | - | - | - |
| 1778000168 | 19.44° C | 74% | 1006 hPa | 0 mm | - | - | - |
| 1777999567 | 19.44° C | 74% | 1006 hPa | 0 mm | - | - | - |
| 1777998967 | 20° C | 73% | 1007 hPa | 0 mm | - | - | - |
| 1777998367 | 19.44° C | 70% | 1007 hPa | 0 mm | - | - | - |
| 1777997767 | 20° C | 70% | 1007 hPa | 0 mm | - | - | - |
| 1777997168 | 20° C | 70% | 1007 hPa | 0 mm | - | - | - |
| 1777996567 | 20.56° C | 69% | 1007 hPa | 0 mm | - | - | - |
| 1777995967 | 20.56° C | 70% | 1007 hPa | 0 mm | - | - | - |
| 1777995368 | 20° C | 70% | 1007 hPa | 0 mm | - | - | - |
| 1777994767 | 20° C | 70% | 1007 hPa | 0 mm | - | - | - |
| 1777994167 | 20° C | 70% | 1007 hPa | 0 mm | - | - | - |
| 1777993567 | 20° C | 70% | 1007 hPa | 0 mm | - | - | - |
| 1777992967 | 20° C | 69% | 1007 hPa | 0 mm | - | - | - |
* Rain latest hour (hover to see other rain measurements)
** Current wind speed in m/s (hover to see current wind gust speed)